Regional Weather Roundup
Issued by NWS

Home | Current Version | Previous Version | Text Only | Print | Product List | Glossary On
Versions: 1 2 3 4 5 6 7 8 9 10 11 12 13 14 15 16 17 18 19 20 21 22 23 24 25 26 27 28 29 30 31 32 33 34 35 36 37 38 39 40 41 42 43 44 45 46 47 48 49 50
706
ASUS44 KJAN 280910
RWRMS

MISSISSIPPI HOURLY WEATHER ROUNDUP
NATIONAL WEATHER SERVICE JACKSON MS
400 AM CDT SAT MAR 28 2015

NOTE: "FAIR: INDICATES FEW OR NO CLOUDS BELOW 12,000 FEET WITH NO
SIGNIFICANT WEATHER AND/OR OBSTRUCTIONS TO VISIBILITY.

MSZ001>002-007>008-010>013-018>021-025>028-034>036-281000-
NORTHWEST MISSISSIPPI

CITY           SKY/WX    TMP DP  RH WIND       PRES   REMARKS
CLARKSDALE     CLOUDY    37  32  81 NE6       30.21S WCI  33
CLEVELAND      CLOUDY    41  35  78 E7        30.20S
GREENWOOD      MOCLDY    40  30  67 E5        30.20R
GREENVILLE     PTCLDY    39  36  89 NE3       30.20R
OLIVE BRANCH   CLOUDY    34  27  75 E3        30.19S
OXFORD         MOCLDY    32  27  80 CALM      30.20R
$$

MSZ003>006-009-014>017-022>024-029>033-037>039-281000-
NORTHEAST MISSISSIPPI

CITY           SKY/WX    TMP DP  RH WIND       PRES   REMARKS
COLUMBUS AFB   CLOUDY    37  28  70 N7        30.17S WCI  31
CORINTH        CLOUDY    34  25  69 CALM      30.17S
GOLDN TRIANGLE CLOUDY    37  28  70 N3        30.17S
STARKVILLE     CLOUDY    36  32  87 CALM      30.17F
TUPELO         MOCLDY    33  27  78 NE7       30.18S WCI  27
$$

MSZ040-058-281000-
CENTRAL MISSISSIPPI

CITY           SKY/WX    TMP DP  RH WIND       PRES   REMARKS
JACKSON INTL   CLEAR     38  35  89 CALM      30.18S
JACKSON HAWKNS CLEAR     41  35  79 CALM      30.18S
MERIDIAN KEY   PTCLDY    38  35  89 NW3       30.18R
MERIDIAN NAS   NOT AVBL
RAYMOND        FAIR      37  34  87 CALM      30.18F
VICKSBURG      CLEAR     38  34  85 S3        30.19F
$$

MSZ059>079-281000-
SOUTH MISSISSIPPI

CITY           SKY/WX    TMP DP  RH WIND       PRES   REMARKS
BROOKHAVEN       N/A     37  37 100 CALM      30.19S
HATTIESBURG    CLEAR     42  38  85 N3        30.18F
MCCOMB         CLEAR     42  37  82 CALM      30.17F
NATCHEZ        CLEAR     39  36  87 CALM      30.18F
PINE BELT      CLEAR     37  34  87 NW3       30.18S
$$

MSZ080>082-281000-
COASTAL MISSISSIPPI

CITY           SKY/WX    TMP DP  RH WIND       PRES   REMARKS
BILOXI         CLEAR     47  36  65 N5        30.16R
PASCAGOULA     CLEAR     41  38  89 CALM      30.17R
GULFPORT       CLEAR     45  38  76 CALM      30.17R
$$



USA.gov is the U.S. government's official web portal to all federal, state and local government web resources and services.